CARTOSAT 2B

Last updated on Thu Jun 22 2017 00:17:34 GMT+0000 (Coordinated Universal Time)

1 36795U 10035A 17172.46571527 -.00001922 00000-0 -25487-3 0 9999 2 36795 97.9237 233.3630 0015223 21.9291 338.2604 14.78657688374815

Satellite not in orbit

CARTOSAT 2B